Weather History for Tallahassee, FL

Change the Weather History Date:

Monday, October 24, 2011

  Actual Average Record
Temperature  
Mean Temperature 62 °F 67 °F  
Max Temperature 80 °F 79 °F 91 °F (1941)
Min Temperature 43 °F 54 °F 34 °F (1937)
Degree Days  
Heating Degree Days 3    
Month to date heating degree days 55  
Since 1 July heating degree days 55  
Cooling Degree Days 0    
Month to date cooling degree days 108  
Year to date cooling degree days 2867  
Growing Degree Days 12 (Base 50)    
Moisture  
Dew Point 46 °F    
Average Humidity 63    
Maximum Humidity 96    
Minimum Humidity 30    
Precipitation  
Precipitation 0.00 in 0.10 in 2.30 in (1913)
Month to date precipitation 1.59 2.56  
Year to date precipitation 29.48 51.16  
Sea Level Pressure  
Sea Level Pressure 30.12 in    
Wind  
Wind Speed 3 mph (NNW)    
Max Wind Speed 15 mph    
Max Gust Speed 17 mph    
Visibility 10 miles    
Events      
T = Trace of Precipitation, MM = Missing Value Source: NWS Daily Summary

Daily Weather History Graph

Daily Weather History Graph

Search for Another Location

Airport:

Trip Planner

Search our weather history database for the weather conditions in past years. The results will help you decide how hot, cold, wet, or windy it might be!

Date:

Astronomy

Oct. 24, 2011 Rise Set
Actual Time 7:45 AM EDT 6:57 PM EDT
Civil Twilight 7:21 AM EDT 7:21 PM EDT
Nautical Twilight 6:52 AM EDT 7:49 PM EDT
Astronomical Twilight 6:25 AM EDT 8:17 PM EDT
Moon 5:11 AM EDT (10/24) 5:15 PM EDT (10/24)
Length of Visible Light 12h 00m
Length of Day
11h 11m
Waning Crescent, 7% of the Moon is Illuminated
Oct 24
Waning Crescent
Oct 26
New
Nov 2
First Quarter
Nov 10
Full
Nov 18
Last Quarter

Hourly Weather History & Observations

Time (EDT) Temp. Dew Point Humidity Pressure Visibility Wind Dir Wind Speed Gust Speed Precip Events Conditions
12:53 AM 46.4 °F 44.6 °F 93% 30.09 in 10.0 mi Calm Calm - N/A   Clear
1:53 AM 46.9 °F 43.0 °F 86% 30.09 in 10.0 mi Calm Calm - N/A   Clear
2:53 AM 46.9 °F 42.1 °F 83% 30.08 in 10.0 mi Calm Calm - N/A   Clear
3:53 AM 44.1 °F 41.0 °F 89% 30.08 in 10.0 mi Calm Calm - N/A   Clear
4:53 AM 45.0 °F 42.1 °F 90% 30.08 in 10.0 mi Calm Calm - N/A   Clear
5:53 AM 43.0 °F 41.0 °F 93% 30.09 in 10.0 mi Calm Calm - N/A   Clear
6:53 AM 44.1 °F 41.0 °F 89% 30.12 in 10.0 mi Calm Calm - N/A   Clear
7:53 AM 44.1 °F 41.0 °F 89% 30.14 in 10.0 mi Calm Calm - N/A   Clear
8:53 AM 50.0 °F 46.0 °F 86% 30.15 in 10.0 mi Calm Calm - N/A   Clear
9:53 AM 60.1 °F 46.9 °F 62% 30.17 in 10.0 mi NNW 5.8 mph - N/A   Clear
10:53 AM 68.0 °F 48.0 °F 49% 30.17 in 10.0 mi North 3.5 mph - N/A   Clear
11:53 AM 73.0 °F 45.0 °F 37% 30.17 in 10.0 mi NNW 6.9 mph - N/A   Clear
12:53 PM 75.0 °F 45.0 °F 34% 30.14 in 10.0 mi North 9.2 mph - N/A   Clear
1:53 PM 78.1 °F 45.0 °F 31% 30.12 in 10.0 mi North 8.1 mph - N/A   Clear
2:53 PM 80.1 °F 46.0 °F 30% 30.10 in 10.0 mi NW 10.4 mph - N/A   Clear
3:53 PM 79.0 °F 46.0 °F 31% 30.08 in 10.0 mi North 10.4 mph - N/A   Clear
4:53 PM 79.0 °F 46.9 °F 32% 30.08 in 10.0 mi North 9.2 mph - N/A   Clear
5:53 PM 78.1 °F 46.9 °F 33% 30.09 in 10.0 mi North 10.4 mph - N/A   Clear
6:53 PM 75.0 °F 48.9 °F 40% 30.10 in 10.0 mi Calm Calm - N/A   Clear
7:53 PM 64.0 °F 52.0 °F 65% 30.11 in 10.0 mi Calm Calm - N/A   Clear
8:53 PM 57.9 °F 51.1 °F 78% 30.13 in 10.0 mi Calm Calm - N/A   Clear
9:53 PM 55.0 °F 50.0 °F 83% 30.15 in 10.0 mi Calm Calm - N/A   Clear
10:53 PM 54.0 °F 48.9 °F 83% 30.17 in 10.0 mi Calm Calm - N/A   Clear
11:53 PM 52.0 °F 48.0 °F 86% 30.17 in 10.0 mi Calm Calm - N/A   Clear